Weather History for PACD - March, 2014

Change the Weather History Date:

Thursday, March 6, 2014

  Actual Average Record
Temperature  
Mean Temperature 38 °F 30 °F  
Max Temperature 42 °F 35 °F 44 °F (1952)
Min Temperature 33 °F 25 °F -3 °F (1956)
Degree Days  
Heating Degree Days 27 35  
Month to date heating degree days 159 210  
Since 1 July heating degree days 5303 6434  
Cooling Degree Days 0    
Month to date cooling degree days 0  
Year to date cooling degree days 0  
Moisture  
Dew Point 31 °F    
Average Humidity 83    
Maximum Humidity 93    
Minimum Humidity 67    
Precipitation  
Precipitation 0.04 in 0.10 in 0.74 in (2000)
Month to date precipitation 0.04 0.59  
Year to date precipitation 8.49 6.73  
Snow  
Snow 0.40 in 0.40 in 3.00 in (1978)
Month to date snowfall 0.4 2.6  
Since 1 July snowfall 29.5 54.8  
Snow Depth T in    
Sea Level Pressure  
Sea Level Pressure 29.45 in    
Wind  
Wind Speed 11 mph (NNE)    
Max Wind Speed 22 mph    
Max Gust Speed 25 mph    
Visibility 8 miles    
Events Rain , Snow    
T = Trace of Precipitation, MM = Missing Value Source: NWS Daily Summary

Daily Weather History Graph

Daily Weather History Graph

Search for Another Location

Airport or City:

Trip Planner

Search our weather history database for the weather conditions in past years. The results will help you decide how hot, cold, wet, or windy it might be!

Date:

Astronomy

Mar. 06, 2014 Rise Set
Actual Time 8:28 AM AKST 7:37 PM AKST
Civil Twilight 7:51 AM AKST 8:13 PM AKST
Nautical Twilight 7:09 AM AKST 8:55 PM AKST
Astronomical Twilight 6:26 AM AKST 9:39 PM AKST
Moon 10:46 AM AKST (3/6) 1:52 AM AKST (3/6)
Length of Visible Light 12h 21m
Length of Day
11h 09m
Waxing Crescent, 34% of the Moon is Illuminated
Mar 6
Waxing Crescent
Mar 8
First Quarter
Mar 16
Full
Mar 23
Last Quarter
Mar 30
New

Hourly Weather History & Observations

Time (AKST) Temp. Windchill Dew Point Humidity Pressure Visibility Wind Dir Wind Speed Gust Speed Precip Events Conditions
12:53 AM 33.1 °F 24.9 °F 28.9 °F 85% 29.52 in 10.0 mi NNE 10.4 mph - N/A   Overcast
1:04 AM 33.8 °F 25.8 °F 30.2 °F 87% 29.51 in 10.0 mi NNE 10.4 mph - N/A   Overcast
1:39 AM 33.8 °F 27.7 °F 30.2 °F 87% 29.51 in 1.8 mi NE 6.9 mph - 0.01 in Snow Light Snow
1:53 AM 34.0 °F 29.8 °F 30.9 °F 89% 29.52 in 1.8 mi NE 4.6 mph - 0.02 in Snow Light Snow
2:04 AM 33.8 °F - 32.0 °F 93% 29.51 in 2.5 mi Calm Calm - 0.00 in Snow Light Snow
2:53 AM 33.1 °F 26.9 °F 30.9 °F 92% 29.51 in 9.0 mi North 6.9 mph - 0.02 in Snow Light Snow
3:22 AM 33.8 °F 27.0 °F 30.2 °F 87% 29.50 in 9.0 mi NNE 8.1 mph - 0.00 in Snow Light Snow
3:53 AM 33.1 °F 24.4 °F 30.0 °F 89% 29.49 in 9.0 mi NNE 11.5 mph - 0.00 in Snow Light Snow
4:21 AM 33.8 °F 25.3 °F 30.2 °F 87% 29.48 in 9.0 mi NNE 11.5 mph - 0.00 in Snow Light Snow
4:53 AM 33.1 °F 23.9 °F 30.0 °F 89% 29.48 in 9.0 mi NNE 12.7 mph - 0.00 in Snow Light Snow
5:53 AM 33.1 °F 23.4 °F 28.9 °F 85% 29.46 in 9.0 mi NNE 13.8 mph - 0.00 in Snow Light Snow
6:53 AM 33.1 °F 23.0 °F 28.9 °F 85% 29.45 in 9.0 mi North 15.0 mph - 0.00 in Snow Light Snow
7:53 AM 34.0 °F 24.2 °F 30.0 °F 85% 29.45 in 9.0 mi NNE 15.0 mph - 0.00 in Snow Light Snow
8:46 AM 33.8 °F 25.8 °F 30.2 °F 87% 29.45 in 2.5 mi NNE 10.4 mph - 0.00 in Snow Light Snow
8:53 AM 33.1 °F 24.9 °F 30.0 °F 89% 29.45 in 1.8 mi NNE 10.4 mph - 0.00 in Snow Light Snow
8:59 AM 33.8 °F 25.8 °F 30.2 °F 87% 29.45 in 3.0 mi NNE 10.4 mph - 0.00 in Snow Light Snow
9:16 AM 33.8 °F 25.8 °F 30.2 °F 87% 29.45 in 8.0 mi NNE 10.4 mph - 0.00 in Snow Light Snow
9:28 AM 33.8 °F 24.8 °F 30.2 °F 87% 29.45 in 9.0 mi NNE 12.7 mph - 0.00 in Snow Light Snow
9:53 AM 34.0 °F 24.2 °F 30.0 °F 85% 29.45 in 9.0 mi NNE 15.0 mph - 0.00 in   Overcast
10:53 AM 34.0 °F 24.2 °F 30.0 °F 85% 29.45 in 10.0 mi NNE 15.0 mph - N/A   Overcast
11:53 AM 36.0 °F 27.5 °F 30.9 °F 82% 29.44 in 10.0 mi NNE 12.7 mph - N/A   Overcast
12:53 PM 37.0 °F 28.5 °F 32.0 °F 82% 29.44 in 9.0 mi NNE 13.8 mph - 0.00 in Rain , Snow Light Rain
1:53 PM 37.0 °F 28.1 °F 32.0 °F 82% 29.43 in 10.0 mi NNE 15.0 mph - 0.00 in   Overcast
2:34 PM 37.4 °F 29.3 °F 32.0 °F 81% 29.42 in 9.0 mi NNE 12.7 mph - 0.00 in Snow Light Snow
2:53 PM 37.9 °F 29.6 °F 32.0 °F 79% 29.42 in 9.0 mi NNE 13.8 mph - 0.00 in   Overcast
3:21 PM 39.2 °F 33.6 °F 32.0 °F 75% 29.41 in 10.0 mi NNE 8.1 mph - N/A   Mostly Cloudy
3:53 PM 39.9 °F 33.9 °F 32.0 °F 73% 29.40 in 10.0 mi NNE 9.2 mph - N/A   Overcast
4:53 PM 41.0 °F 36.4 °F 30.9 °F 67% 29.40 in 9.0 mi NE 6.9 mph - N/A   Overcast
5:53 PM 37.9 °F 33.5 °F 30.9 °F 76% 29.39 in 9.0 mi ESE 5.8 mph - 0.00 in   Overcast
6:53 PM 39.0 °F 35.7 °F 30.9 °F 73% 29.40 in 10.0 mi NE 4.6 mph - N/A   Overcast
7:53 PM 36.0 °F 29.6 °F 30.9 °F 82% 29.41 in 10.0 mi NNE 8.1 mph - N/A   Overcast
8:53 PM 34.0 °F 28.8 °F 30.0 °F 85% 29.41 in 10.0 mi North 5.8 mph - N/A   Overcast
9:53 PM 37.0 °F 26.4 °F 30.9 °F 79% 29.41 in 10.0 mi East 20.7 mph 25.3 mph N/A   Overcast
10:53 PM 36.0 °F 27.5 °F 30.0 °F 79% 29.42 in 10.0 mi ENE 12.7 mph - 0.00 in   Mostly Cloudy
11:53 PM 35.1 °F 32.2 °F 28.9 °F 78% 29.42 in 10.0 mi SE 3.5 mph - N/A   Overcast